Location: *
(49.9853°N, 3.5569°E)
Time: 17:11:38
(UTC+00:00)

NOSS 3-4 (C) - Pass Details

Date: 22 September 2019
Orbit: 913 x 1299 km, 63.4° (Epoch: 17 October)

Event Time Altitude Azimuth Distance (km) Brightness Sun altitude
Rises 18:40:14 0° 315° (NW) 3,829 7.7 -9.7°
Reaches altitude 10° 18:42:48 10° 312° (NW) 2,925 7.0 -10.1°
Maximum altitude 18:49:37 58° 236° (SW) 1,329 4.5 -11.2°
Drops below altitude 10° 18:57:04 10° 160° (SSE) 3,179 5.8 -12.3°
Sets 18:59:58 0° 156° (SSE) 4,184 6.4 -12.8°
